When you browse on this site, cookies collect data to enhance your experience and personalize the content and advertising you see.
Visit our Privacy Policy to learn more. By continuing to use the site, you agree to this use of cookies and data.
  • en Belgique
  • Liste des pays
  • À 7 jours
  • Température de l'eau
  • Carte satellitaire
  • Carte météo
  • Widgets météo
  • user-avatar
    Se connecter

    Météo par heure à Zhohovo

    Ce jour, 22 Mars, Vendredi

    Heure Température Précipitation Vent Pression Humidité
    00:00 -2°C° 0 mm 3 m/s 747 mmHg 93%
    01:00 -2°C° 0 mm 3 m/s 746 mmHg 94%
    02:00 -2°C° 0 mm 4 m/s 746 mmHg 94%
    03:00 -2°C° 0.3 mm 4 m/s 744 mmHg 94%
    04:00 -2°C° 0.3 mm 4 m/s 743 mmHg 94%
    05:00 -1°C° 0.3 mm 5 m/s 742 mmHg 93%
    06:00 -1°C° 1.1 mm 4 m/s 741 mmHg 94%
    07:00 -1°C° 1.1 mm 4 m/s 740 mmHg 94%
    08:00 -1°C° 1.1 mm 4 m/s 740 mmHg 94%
    09:00 -1°C° 0.7 mm 5 m/s 740 mmHg 92%
    10:00 -2°C° 0.7 mm 6 m/s 740 mmHg 89%
    11:00 -2°C° 0.7 mm 8 m/s 741 mmHg 86%
    12:00 -2°C° 0.1 mm 8 m/s 741 mmHg 84%
    13:00 -2°C° 0.1 mm 7 m/s 742 mmHg 82%
    14:00 -2°C° 0.1 mm 7 m/s 743 mmHg 80%
    15:00 -2°C° 0 mm 7 m/s 743 mmHg 81%
    16:00 -3°C° 0 mm 6 m/s 743 mmHg 81%
    17:00 -3°C° 0 mm 6 m/s 744 mmHg 82%
    18:00 -3°C° 0 mm 6 m/s 744 mmHg 84%
    19:00 -2°C° 0 mm 5 m/s 745 mmHg 85%
    20:00 -2°C° 0 mm 5 m/s 746 mmHg 87%
    21:00 -2°C° 0 mm 5 m/s 746 mmHg 87%
    22:00 -2°C° 0 mm 5 m/s 747 mmHg 88%
    23:00 -1°C° 0 mm 5 m/s 748 mmHg 89%

    Demain, 23 Mars, Samedi

    Heure Température Précipitation Vent Pression Humidité
    00:00 -1°C° 0 mm 5 m/s 749 mmHg 90%
    01:00 -2°C° 0 mm 5 m/s 750 mmHg 91%
    02:00 -2°C° 0 mm 4 m/s 751 mmHg 91%
    03:00 -2°C° 0 mm 4 m/s 751 mmHg 93%
    04:00 -2°C° 0 mm 3 m/s 752 mmHg 94%
    05:00 -2°C° 0 mm 2 m/s 753 mmHg 95%
    06:00 -2°C° 0 mm 2 m/s 753 mmHg 96%
    07:00 -1°C° 0 mm 2 m/s 754 mmHg 97%
    08:00 -1°C° 0 mm 2 m/s 754 mmHg 97%
    09:00 +1°C° 0 mm 1 m/s 754 mmHg 97%
    10:00 +2°C° 0 mm 1 m/s 754 mmHg 97%
    11:00 +2°C° 0 mm 1 m/s 754 mmHg 97%
    12:00 +2°C° 0 mm 1 m/s 754 mmHg 97%
    13:00 +2°C° 0 mm 1 m/s 754 mmHg 96%
    14:00 +2°C° 0 mm 1 m/s 754 mmHg 95%
    15:00 +2°C° 0 mm 1 m/s 753 mmHg 94%
    16:00 +1°C° 0 mm 2 m/s 753 mmHg 93%
    17:00 +1°C° 0 mm 2 m/s 752 mmHg 92%
    18:00 0°C° 0 mm 3 m/s 752 mmHg 91%
    19:00 0°C° 0 mm 3 m/s 751 mmHg 90%
    20:00 -1°C° 0 mm 4 m/s 751 mmHg 89%
    21:00 -1°C° 0 mm 4 m/s 750 mmHg 88%
    22:00 -1°C° 0 mm 5 m/s 749 mmHg 87%
    23:00 -1°C° 0 mm 5 m/s 749 mmHg 87%

    Après-demain, 24 Mars, Dimanche

    Heure Température Précipitation Vent Pression Humidité
    00:00 -1°C° 0 mm 5 m/s 748 mmHg 87%
    01:00 -1°C° 0 mm 5 m/s 747 mmHg 87%
    02:00 -1°C° 0 mm 5 m/s 746 mmHg 87%
    03:00 -1°C° 0.6 mm 5 m/s 745 mmHg 89%
    04:00 -1°C° 0.6 mm 5 m/s 745 mmHg 90%
    05:00 -2°C° 0.6 mm 5 m/s 744 mmHg 92%
    06:00 -1°C° 0.1 mm 4 m/s 744 mmHg 93%
    07:00 -1°C° 0.1 mm 4 m/s 743 mmHg 94%
    08:00 0°C° 0.1 mm 3 m/s 743 mmHg 96%
    09:00 +1°C° 0 mm 3 m/s 743 mmHg 94%
    10:00 +1°C° 0 mm 3 m/s 743 mmHg 93%
    11:00 +2°C° 0 mm 3 m/s 743 mmHg 92%
    12:00 +2°C° 0.3 mm 3 m/s 742 mmHg 89%
    13:00 +2°C° 0.3 mm 3 m/s 742 mmHg 86%
    14:00 +1°C° 0.3 mm 4 m/s 742 mmHg 83%
    15:00 +1°C° 0.2 mm 3 m/s 742 mmHg 83%
    16:00 +1°C° 0.2 mm 3 m/s 742 mmHg 83%
    17:00 0°C° 0.2 mm 3 m/s 742 mmHg 82%
    18:00 -1°C° 0 mm 3 m/s 743 mmHg 84%
    19:00 -2°C° 0 mm 3 m/s 743 mmHg 85%
    20:00 -2°C° 0 mm 3 m/s 743 mmHg 87%
    21:00 -4°C° 0 mm 3 m/s 743 mmHg 87%
    22:00 -4°C° 0 mm 3 m/s 743 mmHg 88%
    23:00 -4°C° 0 mm 3 m/s 743 mmHg 89%

    25 Mars, Lundi

    Heure Température Précipitation Vent Pression Humidité
    00:00 -5°C° 0 mm 3 m/s 743 mmHg 89%
    01:00 -5°C° 0 mm 3 m/s 743 mmHg 89%
    02:00 -5°C° 0 mm 3 m/s 743 mmHg 89%
    03:00 -5°C° 0 mm 3 m/s 743 mmHg 90%
    04:00 -5°C° 0 mm 3 m/s 743 mmHg 91%
    05:00 -5°C° 0 mm 3 m/s 743 mmHg 92%
    06:00 -4°C° 0 mm 4 m/s 743 mmHg 88%
    07:00 -4°C° 0 mm 4 m/s 743 mmHg 85%
    08:00 -4°C° 0 mm 5 m/s 743 mmHg 81%
    09:00 -2°C° 0 mm 5 m/s 743 mmHg 80%
    10:00 -2°C° 0 mm 5 m/s 744 mmHg 78%
    11:00 -2°C° 0 mm 5 m/s 744 mmHg 77%
    12:00 -2°C° 0 mm 4 m/s 744 mmHg 76%
    13:00 -1°C° 0 mm 4 m/s 744 mmHg 76%
    14:00 0°C° 0 mm 3 m/s 744 mmHg 75%
    15:00 0°C° 0 mm 3 m/s 744 mmHg 77%
    16:00 -1°C° 0 mm 2 m/s 744 mmHg 79%
    17:00 +1°C° 0 mm 1 m/s 743 mmHg 81%
    18:00 +1°C° 0 mm 1 m/s 743 mmHg 84%
    19:00 0°C° 0 mm 1 m/s 743 mmHg 86%
    20:00 0°C° 0 mm 1 m/s 743 mmHg 89%
    21:00 0°C° 1.3 mm 1 m/s 743 mmHg 92%
    22:00 0°C° 1.3 mm 1 m/s 743 mmHg 94%
    23:00 -2°C° 1.3 mm 2 m/s 743 mmHg 97%

    26 Mars, Mardi

    Heure Température Précipitation Vent Pression Humidité
    00:00 -3°C° 0.6 mm 2 m/s 743 mmHg 95%
    01:00 -3°C° 0.6 mm 2 m/s 743 mmHg 93%
    02:00 -5°C° 0.6 mm 3 m/s 743 mmHg 91%
    03:00 -5°C° 0 mm 3 m/s 744 mmHg 91%
    04:00 -6°C° 0 mm 3 m/s 744 mmHg 91%
    05:00 -7°C° 0 mm 3 m/s 744 mmHg 91%
    06:00 -7°C° 0 mm 3 m/s 745 mmHg 90%
    07:00 -6°C° 0 mm 3 m/s 745 mmHg 88%
    08:00 -6°C° 0 mm 3 m/s 746 mmHg 87%
    09:00 -5°C° 0 mm 3 m/s 746 mmHg 83%
    10:00 -4°C° 0 mm 3 m/s 746 mmHg 80%
    11:00 -4°C° 0 mm 3 m/s 746 mmHg 76%
    12:00 -2°C° 0 mm 3 m/s 746 mmHg 74%
    13:00 -2°C° 0 mm 3 m/s 746 mmHg 72%
    14:00 -1°C° 0 mm 3 m/s 746 mmHg 69%
    15:00 -2°C° 0 mm 3 m/s 745 mmHg 72%
    16:00 -2°C° 0 mm 2 m/s 745 mmHg 74%
    17:00 -3°C° 0 mm 2 m/s 744 mmHg 76%
    18:00 -3°C° 0 mm 2 m/s 744 mmHg 78%
    19:00 -4°C° 0 mm 3 m/s 743 mmHg 80%
    20:00 -4°C° 0 mm 3 m/s 743 mmHg 82%
    21:00 -4°C° 0.5 mm 3 m/s 742 mmHg 86%
    22:00 -4°C° 0.5 mm 4 m/s 742 mmHg 90%
    23:00 -4°C° 0.5 mm 4 m/s 741 mmHg 94%

    27 Mars, Mercredi

    Heure Température Précipitation Vent Pression Humidité
    00:00 -4°C° 0.4 mm 4 m/s 741 mmHg 93%
    01:00 -4°C° 0.4 mm 3 m/s 740 mmHg 93%
    02:00 -4°C° 0.4 mm 3 m/s 740 mmHg 93%
    03:00 -5°C° 0.1 mm 3 m/s 740 mmHg 93%
    04:00 -5°C° 0.1 mm 3 m/s 740 mmHg 92%
    05:00 -7°C° 0.1 mm 4 m/s 740 mmHg 92%
    06:00 -5°C° 0.2 mm 4 m/s 741 mmHg 91%
    07:00 -5°C° 0.2 mm 4 m/s 741 mmHg 90%
    08:00 -6°C° 0.2 mm 5 m/s 742 mmHg 89%
    09:00 -5°C° 0.2 mm 5 m/s 743 mmHg 88%
    10:00 -4°C° 0.2 mm 5 m/s 744 mmHg 87%
    11:00 -2°C° 0.2 mm 5 m/s 745 mmHg 85%
    12:00 -2°C° 0.1 mm 5 m/s 745 mmHg 84%
    13:00 -2°C° 0.1 mm 5 m/s 746 mmHg 83%
    14:00 -2°C° 0.1 mm 4 m/s 747 mmHg 82%
    15:00 -2°C° 0 mm 4 m/s 748 mmHg 82%
    16:00 -2°C° 0 mm 3 m/s 749 mmHg 83%
    17:00 -2°C° 0 mm 3 m/s 749 mmHg 83%
    18:00 -4°C° 0 mm 3 m/s 750 mmHg 85%
    19:00 -5°C° 0 mm 3 m/s 751 mmHg 87%
    20:00 -5°C° 0 mm 3 m/s 752 mmHg 89%
    21:00 -5°C° 0 mm 2 m/s 752 mmHg 89%
    22:00 -6°C° 0 mm 2 m/s 753 mmHg 89%
    23:00 -6°C° 0 mm 2 m/s 753 mmHg 89%
    Voir plus